22-11-2022, 00:00:05,    247,    1.9,    3.6,   0.00,   0.00,  986.1,   77.2, -999.0
22-11-2022, 00:00:15,    258,    2.2,    3.6,   0.00,   0.00,  986.1,   77.2, -999.0
22-11-2022, 00:00:25,    299,    1.2,    3.5,   0.00,   0.00,  986.1,   77.1, -999.0
22-11-2022, 00:00:35,    261,    1.8,    3.5,   0.00,   0.01,  986.1,   77.0, -999.0
22-11-2022, 00:00:45,    242,    1.7,    3.6,   0.00,   0.00,  986.1,   77.0, -999.0
22-11-2022, 00:00:55,    224,    0.6,    3.6,   0.00,   0.00,  986.0,   77.0, -999.0
22-11-2022, 00:01:05,    225,    0.1,    3.5,   0.00,   0.00,  985.9,   77.1, -999.0
22-11-2022, 00:01:15,    274,    1.3,    3.6,   0.00,   0.00,  986.0,   77.3, -999.0
22-11-2022, 00:01:24,    204,    0.9,    3.6,   0.00,   0.00,  986.0,   77.3, -999.0
22-11-2022, 00:01:35,    205,    0.0,    3.6,   0.00,   0.00,  986.0,   77.1, -999.0
22-11-2022, 00:01:45,    270,    1.4,    3.6,   0.00,   0.00,  986.1,   77.4, -999.0
22-11-2022, 00:01:55,    226,    4.0,    3.5,   0.00,   0.00,  986.1,   77.5, -999.0
22-11-2022, 00:02:04,    248,    3.3,    3.6,   0.00,   0.00,  986.1,   77.4, -999.0
22-11-2022, 00:02:15,    212,    3.6,    3.6,   0.00,   0.00,  986.1,   77.2, -999.0
22-11-2022, 00:02:25,    259,    2.3,    3.6,   0.00,   0.00,  986.1,   77.1, -999.0
22-11-2022, 00:02:34,    242,    2.1,    3.6,   0.00,   0.00,  986.0,   77.2, -999.0
22-11-2022, 00:02:45,    242,    1.8,    3.6,   0.00,   0.00,  986.1,   77.2, -999.0
22-11-2022, 00:02:55,    244,    0.9,    3.6,   0.00,   0.00,  986.0,   77.2, -999.0
22-11-2022, 00:03:04,    201,    1.2,    3.5,   0.00,   0.00,  985.9,   77.2, -999.0
22-11-2022, 00:03:14,    201,    1.5,    3.6,   0.00,   0.00,  986.0,   77.4, -999.0
22-11-2022, 00:03:25,    251,    2.0,    3.6,   0.00,   0.00,  986.0,   77.4, -999.0
22-11-2022, 00:03:34,    253,    1.8,    3.6,   0.00,   0.00,  986.0,   77.3, -999.0
22-11-2022, 00:03:44,    241,    2.6,    3.6,   0.00,   0.00,  985.9,   77.3, -999.0
22-11-2022, 00:03:54,    244,    2.9,    3.6,   0.00,   0.00,  985.9,   77.3, -999.0
22-11-2022, 00:04:04,    210,    1.9,    3.6,   0.00,   0.00,  985.9,   77.4, -999.0
22-11-2022, 00:04:14,    226,    1.4,    3.6,   0.00,   0.00,  986.0,   77.4, -999.0
22-11-2022, 00:04:24,    267,    1.0,    3.6,   0.00,   0.00,  985.9,   77.5, -999.0
22-11-2022, 00:04:34,    265,    3.2,    3.6,   0.00,   0.00,  985.9,   77.7, -999.0
22-11-2022, 00:04:44,    251,    1.5,    3.6,   0.00,   0.00,  985.9,   77.6, -999.0
22-11-2022, 00:04:54,    242,    1.9,    3.6,   0.00,   0.00,  985.9,   77.6, -999.0
22-11-2022, 00:05:04,    241,    0.4,    3.5,   0.00,   0.00,  985.8,   77.4, -999.0
22-11-2022, 00:05:14,    243,    0.8,    3.5,   0.00,   0.00,  985.9,   77.4, -999.0
22-11-2022, 00:05:24,    242,    0.2,    3.5,   0.00,   0.00,  985.8,   77.3, -999.0
22-11-2022, 00:05:34,    236,    1.4,    3.6,   0.00,   0.00,  985.9,   77.5, -999.0
22-11-2022, 00:05:44,    193,    1.0,    3.6,   0.00,   0.00,  985.9,   77.5, -999.0
22-11-2022, 00:05:54,    244,    2.7,    3.6,   0.00,   0.00,  985.9,   77.4, -999.0
22-11-2022, 00:06:04,    233,    1.9,    3.6,   0.00,   0.00,  985.9,   77.4, -999.0
22-11-2022, 00:06:14,    241,    3.5,    3.6,   0.00,   0.00,  985.9,   77.4, -999.0
22-11-2022, 00:06:24,    232,    3.3,    3.6,   0.00,   0.00,  985.9,   77.3, -999.0
22-11-2022, 00:06:34,    235,    1.7,    3.6,   0.00,   0.00,  985.9,   77.4, -999.0
22-11-2022, 00:06:44,    235,    0.2,    3.5,   0.00,   0.00,  985.9,   77.4, -999.0
22-11-2022, 00:06:54,    241,    0.4,    3.5,   0.00,   0.00,  985.9,   77.3, -999.0
22-11-2022, 00:07:04,    241,    0.8,    3.6,   0.00,   0.00,  985.9,   77.5, -999.0
22-11-2022, 00:07:14,    248,    1.2,    3.6,   0.00,   0.00,  985.9,   77.6, -999.0
22-11-2022, 00:07:24,    250,    0.8,    3.6,   0.00,   0.00,  985.9,   77.5, -999.0
22-11-2022, 00:07:34,    250,    1.3,    3.5,   0.00,   0.00,  985.9,   77.7, -999.0
22-11-2022, 00:07:44,    252,    1.4,    3.6,   0.00,   0.00,  986.0,   77.8, -999.0
22-11-2022, 00:07:54,    294,    1.8,    3.6,   0.00,   0.01,  985.9,   77.8, -999.0
22-11-2022, 00:08:04,    236,    1.3,    3.5,   0.00,   0.00,  986.0,   77.7, -999.0
22-11-2022, 00:08:14,    233,    0.6,    3.5,   0.00,   0.00,  985.9,   77.5, -999.0
22-11-2022, 00:08:24,    228,    3.0,    3.6,   0.00,   0.00,  985.9,   77.9, -999.0
22-11-2022, 00:08:34,    226,    3.9,    3.6,   0.00,   0.00,  986.0,   77.7, -999.0
22-11-2022, 00:08:44,    247,    4.6,    3.6,   0.00,   0.00,  986.0,   77.5, -999.0
22-11-2022, 00:08:53,    255,    5.1,    3.6,   0.00,   0.00,  986.0,   77.3, -999.0
22-11-2022, 00:09:04,    225,    3.6,    3.6,   0.00,   0.00,  985.9,   77.1, -999.0
22-11-2022, 00:09:14,    227,    3.7,    3.6,   0.00,   0.00,  986.0,   76.9, -999.0
22-11-2022, 00:09:23,    252,    2.2,    3.6,   0.00,   0.00,  986.0,   76.7, -999.0
22-11-2022, 00:09:33,    253,    0.1,    3.6,   0.00,   0.00,  985.9,   76.6, -999.0
22-11-2022, 00:09:44,    234,    2.2,    3.6,   0.00,   0.00,  986.0,   77.1, -999.0
22-11-2022, 00:09:53,    245,    1.5,    3.6,   0.00,   0.00,  985.9,   77.1, -999.0
22-11-2022, 00:10:03,    218,    3.4,    3.6,   0.00,   0.00,  985.9,   77.2, -999.0
22-11-2022, 00:10:14,    220,    4.1,    3.6,   0.00,   0.00,  985.9,   77.2, -999.0
22-11-2022, 00:10:23,    207,    2.1,    3.6,   0.00,   0.00,  985.9,   76.9, -999.0
22-11-2022, 00:10:33,    242,    1.3,    3.6,   0.00,   0.00,  985.9,   76.8, -999.0
22-11-2022, 00:10:43,    258,    1.8,    3.6,   0.00,   0.00,  986.0,   76.8, -999.0
22-11-2022, 00:10:53,    190,    0.2,    3.5,   0.00,   0.00,  985.8,   76.7, -999.0
22-11-2022, 00:11:03,    228,    1.2,    3.6,   0.00,   0.00,  985.9,   76.9, -999.0
22-11-2022, 00:11:13,    234,    2.3,    3.6,   0.00,   0.00,  985.9,   77.0, -999.0
22-11-2022, 00:11:23,    255,    1.7,    3.6,   0.00,   0.00,  985.9,   76.9, -999.0
22-11-2022, 00:11:33,    240,    3.9,    3.6,   0.00,   0.00,  985.9,   76.7, -999.0
22-11-2022, 00:11:43,    266,    1.9,    3.5,   0.00,   0.00,  985.9,   76.6, -999.0
22-11-2022, 00:11:53,    240,    1.1,    3.6,   0.00,   0.00,  985.9,   76.7, -999.0
22-11-2022, 00:12:03,    240,    2.3,    3.6,   0.00,   0.00,  985.9,   76.8, -999.0
22-11-2022, 00:12:13,    234,    2.3,    3.6,   0.00,   0.00,  985.9,   76.8, -999.0
22-11-2022, 00:12:23,    233,    2.0,    3.6,   0.00,   0.00,  986.0,   76.9, -999.0
22-11-2022, 00:12:33,    245,    3.2,    3.6,   0.00,   0.00,  985.9,   76.9, -999.0
22-11-2022, 00:12:43,    245,    0.5,    3.6,   0.00,   0.00,  985.9,   76.8, -999.0
22-11-2022, 00:12:53,    245,    0.0,    3.5,   0.00,   0.00,  985.8,   76.6, -999.0
22-11-2022, 00:13:03,    209,    1.1,    3.5,   0.00,   0.00,  985.9,   77.0, -999.0
22-11-2022, 00:13:13,    234,    2.1,    3.6,   0.00,   0.00,  985.9,   77.1, -999.0
22-11-2022, 00:13:23,    262,    2.4,    3.6,   0.00,   0.00,  985.9,   77.1, -999.0
22-11-2022, 00:13:33,    256,    2.1,    3.6,   0.00,   0.00,  985.9,   77.0, -999.0
22-11-2022, 00:13:43,    235,    3.2,    3.6,   0.00,   0.00,  985.9,   77.0, -999.0
22-11-2022, 00:13:53,    233,    2.9,    3.6,   0.00,   0.00,  985.9,   77.0, -999.0
22-11-2022, 00:14:03,    228,    1.5,    3.6,   0.00,   0.00,  985.9,   76.6, -999.0
22-11-2022, 00:14:13,    209,    1.1,    3.6,   0.00,   0.00,  985.9,   76.8, -999.0
22-11-2022, 00:14:23,    209,    1.0,    3.6,   0.00,   0.00,  985.9,   76.9, -999.0
22-11-2022, 00:14:33,    235,    2.4,    3.6,   0.00,   0.00,  985.9,   76.9, -999.0
22-11-2022, 00:14:43,    218,    1.8,    3.6,   0.00,   0.00,  985.9,   76.9, -999.0
22-11-2022, 00:14:53,    250,    1.6,    3.5,   0.00,   0.00,  985.9,   76.9, -999.0
22-11-2022, 00:15:03,    249,    1.6,    3.5,   0.00,   0.00,  985.9,   76.9, -999.0
22-11-2022, 00:15:13,    248,    1.1,    3.6,   0.00,   0.00,  985.9,   76.9, -999.0
22-11-2022, 00:15:23,    251,    0.9,    3.6,   0.00,   0.00,  985.9,   76.9, -999.0
22-11-2022, 00:15:33,    301,    0.5,    3.5,   0.00,   0.00,  985.9,   76.8, -999.0
22-11-2022, 00:15:42,    245,    1.1,    3.6,   0.00,   0.00,  985.9,   77.0, -999.0
22-11-2022, 00:15:53,    245,    3.7,    3.6,   0.00,   0.00,  985.9,   77.2, -999.0
22-11-2022, 00:16:03,    231,    3.0,    3.6,   0.00,   0.00,  985.9,   77.1, -999.0
22-11-2022, 00:16:12,    224,    1.7,    3.6,   0.00,   0.00,  985.9,   77.1, -999.0
22-11-2022, 00:16:22,    224,    0.0,    3.5,   0.00,   0.00,  985.7,   76.8, -999.0
22-11-2022, 00:16:33,    275,    1.6,    3.6,   0.00,   0.00,  985.8,   77.3, -999.0
22-11-2022, 00:16:42,    231,    1.3,    3.6,   0.00,   0.00,  985.8,   77.3, -999.0
22-11-2022, 00:16:52,    236,    1.2,    3.5,   0.00,   0.00,  985.9,   77.2, -999.0
22-11-2022, 00:17:03,    236,    0.2,    3.6,   0.00,   0.00,  985.9,   77.2, -999.0
22-11-2022, 00:17:12,    236,    0.0,    3.5,   0.00,   0.00,  985.8,   76.7, -999.0
22-11-2022, 00:17:22,    252,    0.3,    3.5,   0.00,   0.00,  985.9,   77.0, -999.0
22-11-2022, 00:17:32,    252,    0.2,    3.6,   0.00,   0.00,  985.8,   76.9, -999.0
22-11-2022, 00:17:43,    236,    0.4,    3.5,   0.00,   0.00,  985.8,   76.9, -999.0
22-11-2022, 00:17:54,    229,    2.3,    3.6,   0.00,   0.00,  985.9,   77.1, -999.0
22-11-2022, 00:18:02,    244,    3.5,    3.5,   0.00,   0.00,  985.8,   77.0, -999.0
22-11-2022, 00:18:12,    261,    2.0,    3.6,   0.00,   0.00,  985.8,   76.9, -999.0
22-11-2022, 00:18:22,    209,    2.3,    3.6,   0.00,   0.00,  985.8,   76.9, -999.0
22-11-2022, 00:18:32,    234,    1.0,    3.5,   0.00,   0.00,  985.9,   76.9, -999.0
22-11-2022, 00:18:42,    248,    2.6,    3.6,   0.00,   0.00,  985.9,   76.9, -999.0
22-11-2022, 00:18:52,    230,    2.2,    3.5,   0.00,   0.00,  985.8,   77.0, -999.0
22-11-2022, 00:19:02,    267,    4.1,    3.6,   0.00,   0.00,  985.8,   76.9, -999.0
22-11-2022, 00:19:12,    231,    1.6,    3.5,   0.00,   0.00,  985.8,   76.9, -999.0
22-11-2022, 00:19:22,    264,    1.4,    3.6,   0.00,   0.00,  985.8,   77.0, -999.0
22-11-2022, 00:19:33,    264,    0.8,    3.5,   0.00,   0.00,  985.8,   77.2, -999.0
22-11-2022, 00:19:42,    256,    0.3,    3.5,   0.00,   0.00,  985.8,   76.9, -999.0
22-11-2022, 00:19:52,    256,    0.4,    3.5,   0.00,   0.00,  985.8,   77.0, -999.0
22-11-2022, 00:20:02,    258,    0.4,    3.6,   0.00,   0.00,  985.9,   77.0, -999.0
22-11-2022, 00:20:12,    230,    1.3,    3.6,   0.00,   0.00,  985.9,   77.0, -999.0
22-11-2022, 00:20:22,    230,    0.5,    3.6,   0.00,   0.00,  985.9,   76.8, -999.0
22-11-2022, 00:20:32,    235,    1.9,    3.6,   0.00,   0.00,  985.8,   76.8, -999.0
22-11-2022, 00:20:42,    235,    0.8,    3.6,   0.00,   0.00,  985.8,   77.0, -999.0
22-11-2022, 00:20:52,    234,    0.0,    3.5,   0.00,   0.00,  985.7,   76.7, -999.0
22-11-2022, 00:21:02,    234,    0.0,    3.5,   0.00,   0.00,  985.7,   76.8, -999.0
22-11-2022, 00:21:12,    201,    0.9,    3.5,   0.00,   0.00,  985.7,   77.1, -999.0
22-11-2022, 00:21:22,    208,    1.1,    3.6,   0.00,   0.00,  985.8,   77.0, -999.0
22-11-2022, 00:21:32,    241,    1.4,    3.6,   0.00,   0.00,  985.8,   76.9, -999.0
22-11-2022, 00:21:42,    273,    2.3,    3.6,   0.00,   0.00,  985.8,   76.8, -999.0
22-11-2022, 00:21:52,    248,    0.2,    3.6,   0.00,   0.00,  985.8,   76.5, -999.0
22-11-2022, 00:22:02,    235,    1.1,    3.5,   0.00,   0.00,  985.7,   76.5, -999.0
22-11-2022, 00:22:12,    201,    2.4,    3.6,   0.00,   0.00,  985.8,   76.7, -999.0
22-11-2022, 00:22:22,    260,    2.9,    3.6,   0.00,   0.00,  985.8,   76.7, -999.0
22-11-2022, 00:22:31,    220,    2.3,    3.6,   0.00,   0.00,  985.9,   76.7, -999.0
22-11-2022, 00:22:42,    224,    4.1,    3.6,   0.00,   0.00,  985.8,   76.7, -999.0
22-11-2022, 00:22:52,    234,    7.6,    3.6,   0.00,   0.00,  985.8,   76.4, -999.0
22-11-2022, 00:23:01,    228,    6.2,    3.7,   0.00,   0.00,  985.8,   75.8, -999.0
22-11-2022, 00:23:11,    238,    3.7,    3.7,   0.00,   0.00,  985.8,   75.5, -999.0
22-11-2022, 00:23:22,    238,    1.1,    3.7,   0.00,   0.00,  985.8,   75.4, -999.0
22-11-2022, 00:23:31,    265,    0.6,    3.7,   0.00,   0.00,  985.7,   75.5, -999.0
22-11-2022, 00:23:41,    260,    0.6,    3.7,   0.00,   0.00,  985.8,   75.8, -999.0
22-11-2022, 00:23:51,    255,    1.5,    3.8,   0.00,   0.00,  985.8,   75.9, -999.0
22-11-2022, 00:24:02,    272,    1.1,    3.8,   0.00,   0.00,  985.8,   76.0, -999.0
22-11-2022, 00:24:11,    257,    0.7,    3.8,   0.00,   0.00,  985.8,   75.9, -999.0
22-11-2022, 00:24:21,    228,    2.6,    3.6,   0.00,   0.00,  985.8,   76.0, -999.0
22-11-2022, 00:24:32,    228,    0.5,    3.7,   0.00,   0.00,  985.9,   76.0, -999.0
22-11-2022, 00:24:41,    289,    1.0,    3.7,   0.00,   0.00,  985.8,   76.1, -999.0
22-11-2022, 00:24:51,    291,    1.1,    3.7,   0.00,   0.00,  985.9,   76.2, -999.0
22-11-2022, 00:25:01,    241,    1.3,    3.8,   0.00,   0.00,  985.9,   76.2, -999.0
22-11-2022, 00:25:11,    230,    0.9,    3.7,   0.00,   0.00,  985.8,   76.1, -999.0
22-11-2022, 00:25:21,    233,    2.7,    3.7,   0.00,   0.00,  985.9,   76.0, -999.0
22-11-2022, 00:25:31,    229,    0.4,    3.7,   0.00,   0.00,  985.7,   75.9, -999.0
22-11-2022, 00:25:41,    230,    0.1,    3.6,   0.00,   0.00,  985.7,   75.7, -999.0
22-11-2022, 00:25:51,    230,    0.1,    3.6,   0.00,   0.00,  985.6,   75.7, -999.0
22-11-2022, 00:26:01,    215,    0.4,    3.8,   0.00,   0.00,  985.7,   76.1, -999.0
22-11-2022, 00:26:11,    217,    0.4,    3.8,   0.00,   0.00,  985.8,   76.2, -999.0
22-11-2022, 00:26:21,    242,    0.9,    3.8,   0.00,   0.00,  985.7,   76.3, -999.0
22-11-2022, 00:26:31,    246,    0.8,    3.7,   0.00,   0.00,  985.7,   76.2, -999.0
22-11-2022, 00:26:41,    257,    0.9,    3.7,   0.00,   0.00,  985.7,   76.0, -999.0
22-11-2022, 00:26:51,    257,    0.0,    3.6,   0.00,   0.00,  985.7,   75.8, -999.0
22-11-2022, 00:27:01,    257,    0.0,    3.6,   0.00,   0.00,  985.6,   75.7, -999.0
22-11-2022, 00:27:11,    257,    0.0,    3.6,   0.00,   0.00,  985.6,   75.7, -999.0
22-11-2022, 00:27:21,    257,    0.0,    3.6,   0.00,   0.00,  985.6,   75.9, -999.0
22-11-2022, 00:27:31,    255,    0.0,    3.7,   0.00,   0.00,  985.8,   76.0, -999.0
22-11-2022, 00:27:41,    257,    0.2,    3.6,   0.00,   0.00,  985.8,   76.0, -999.0
22-11-2022, 00:27:51,    263,    0.8,    3.7,   0.00,   0.00,  985.9,   76.3, -999.0
22-11-2022, 00:28:01,    261,    0.2,    3.6,   0.00,   0.00,  985.8,   76.1, -999.0
22-11-2022, 00:28:11,    260,    1.8,    3.6,   0.00,   0.00,  985.9,   76.2, -999.0
22-11-2022, 00:28:21,    220,    1.3,    3.7,   0.00,   0.00,  985.9,   76.2, -999.0
22-11-2022, 00:28:31,    264,    1.6,    3.7,   0.00,   0.00,  985.8,   76.2, -999.0
22-11-2022, 00:28:41,    229,    0.5,    3.7,   0.00,   0.00,  985.8,   76.3, -999.0
22-11-2022, 00:28:51,    247,    0.7,    3.7,   0.00,   0.00,  985.7,   76.2, -999.0
22-11-2022, 00:29:01,    274,    0.4,    3.6,   0.00,   0.00,  985.8,   76.2, -999.0
22-11-2022, 00:29:11,    230,    1.2,    3.6,   0.00,   0.00,  985.8,   76.1, -999.0
22-11-2022, 00:29:21,    236,    2.4,    3.7,   0.00,   0.00,  985.8,   76.3, -999.0
22-11-2022, 00:29:30,    247,    1.7,    3.6,   0.00,   0.00,  985.8,   76.1, -999.0
22-11-2022, 00:29:41,    244,    2.0,    3.6,   0.00,   0.00,  985.8,   76.1, -999.0
22-11-2022, 00:29:51,    243,    0.8,    3.6,   0.00,   0.00,  985.8,   76.1, -999.0
22-11-2022, 00:30:00,    206,    1.1,    3.6,   0.00,   0.00,  985.8,   76.1, -999.0
22-11-2022, 00:30:10,    244,    0.1,    3.6,   0.00,   0.00,  985.7,   76.1, -999.0
22-11-2022, 00:30:21,    254,    3.5,    3.6,   0.00,   0.00,  985.8,   76.5, -999.0
22-11-2022, 00:30:30,    241,    3.8,    3.7,   0.00,   0.00,  985.8,   76.4, -999.0
22-11-2022, 00:30:40,    253,    2.5,    3.6,   0.00,   0.00,  985.8,   76.4, -999.0
22-11-2022, 00:30:50,    217,    1.1,    3.6,   0.00,   0.00,  985.8,   76.3, -999.0
22-11-2022, 00:31:00,    226,    0.9,    3.6,   0.00,   0.00,  985.8,   76.4, -999.0
22-11-2022, 00:31:10,    227,    0.1,    3.6,   0.00,   0.00,  985.7,   76.2, -999.0
22-11-2022, 00:31:20,    234,    2.3,    3.5,   0.00,   0.00,  985.8,   76.4, -999.0
22-11-2022, 00:31:31,    247,    1.0,    3.6,   0.00,   0.00,  985.8,   76.4, -999.0
22-11-2022, 00:31:40,    250,    0.9,    3.6,   0.00,   0.00,  985.8,   76.5, -999.0
22-11-2022, 00:31:50,    273,    3.4,    3.6,   0.00,   0.00,  985.8,   76.6, -999.0
22-11-2022, 00:32:00,    258,    0.7,    3.6,   0.00,   0.00,  985.7,   76.5, -999.0
22-11-2022, 00:32:10,    226,    0.5,    3.5,   0.00,   0.00,  985.7,   76.4, -999.0
22-11-2022, 00:32:20,    261,    1.4,    3.6,   0.00,   0.00,  985.7,   76.6, -999.0
22-11-2022, 00:32:30,    260,    0.5,    3.6,   0.00,   0.00,  985.7,   76.6, -999.0
22-11-2022, 00:32:40,    259,    0.3,    3.5,   0.00,   0.00,  985.7,   76.4, -999.0
22-11-2022, 00:32:50,    237,    1.9,    3.5,   0.00,   0.00,  985.7,   76.7, -999.0
22-11-2022, 00:33:00,    185,    1.3,    3.6,   0.00,   0.00,  985.8,   76.7, -999.0
22-11-2022, 00:33:10,    236,    0.5,    3.5,   0.00,   0.00,  985.7,   76.5, -999.0
22-11-2022, 00:33:20,    214,    1.2,    3.5,   0.00,   0.00,  985.8,   76.5, -999.0
22-11-2022, 00:33:30,    230,    1.2,    3.5,   0.00,   0.00,  985.8,   76.6, -999.0
22-11-2022, 00:33:40,    232,    0.9,    3.6,   0.00,   0.00,  985.7,   76.6, -999.0
22-11-2022, 00:33:50,    232,    0.5,    3.5,   0.00,   0.00,  985.7,   76.4, -999.0
22-11-2022, 00:34:00,    234,    0.4,    3.5,   0.00,   0.00,  985.7,   76.4, -999.0
22-11-2022, 00:34:10,    281,    0.9,    3.6,   0.00,   0.00,  985.8,   76.7, -999.0
22-11-2022, 00:34:20,    250,    1.3,    3.6,   0.00,   0.00,  985.8,   76.7, -999.0
22-11-2022, 00:34:30,    236,    1.4,    3.6,   0.00,   0.00,  985.8,   76.8, -999.0
22-11-2022, 00:34:40,    184,    0.7,    3.6,   0.00,   0.00,  985.7,   76.6, -999.0
22-11-2022, 00:34:50,    249,    0.8,    3.6,   0.00,   0.00,  985.8,   76.7, -999.0
22-11-2022, 00:35:00,    209,    1.0,    3.6,   0.00,   0.00,  985.8,   76.7, -999.0
22-11-2022, 00:35:10,    223,    4.5,    3.6,   0.00,   0.00,  985.8,   76.6, -999.0
22-11-2022, 00:35:20,    220,    2.6,    3.6,   0.00,   0.00,  985.8,   76.4, -999.0
22-11-2022, 00:35:30,    225,    2.9,    3.6,   0.00,   0.00,  985.8,   76.5, -999.0
22-11-2022, 00:35:40,    251,    1.7,    3.6,   0.00,   0.00,  985.8,   76.4, -999.0
22-11-2022, 00:35:49,    250,    0.1,    3.6,   0.00,   0.00,  985.7,   76.2, -999.0
22-11-2022, 00:36:00,    213,    1.2,    3.6,   0.00,   0.00,  985.8,   76.4, -999.0
22-11-2022, 00:36:10,    228,    0.9,    3.6,   0.00,   0.00,  985.8,   76.5, -999.0
22-11-2022, 00:36:20,    245,    1.6,    3.6,   0.00,   0.00,  985.8,   76.5, -999.0
22-11-2022, 00:36:29,    245,    0.5,    3.6,   0.00,   0.00,  985.7,   76.5, -999.0
22-11-2022, 00:36:40,    254,    2.4,    3.6,   0.00,   0.00,  985.8,   76.6, -999.0
22-11-2022, 00:36:50,    239,    2.6,    3.6,   0.00,   0.00,  985.8,   76.6, -999.0
22-11-2022, 00:36:59,    218,    0.9,    3.6,   0.00,   0.00,  985.8,   76.8, -999.0
22-11-2022, 00:37:10,    235,    0.9,    3.6,   0.00,   0.00,  985.8,   76.8, -999.0
22-11-2022, 00:37:20,    194,    1.7,    3.6,   0.00,   0.00,  985.8,   76.9, -999.0
22-11-2022, 00:37:29,    257,    2.0,    3.6,   0.00,   0.00,  985.8,   77.0, -999.0
22-11-2022, 00:37:39,    257,    0.0,    3.6,   0.00,   0.00,  985.7,   76.7, -999.0
22-11-2022, 00:37:50,    257,    0.0,    3.5,   0.00,   0.00,  985.7,   76.7, -999.0
22-11-2022, 00:37:59,    257,    0.3,    3.5,   0.00,   0.00,  985.8,   76.9, -999.0
22-11-2022, 00:38:09,    254,    0.0,    3.5,   0.00,   0.00,  985.7,   77.0, -999.0
22-11-2022, 00:38:19,    235,    0.2,    3.5,   0.00,   0.00,  985.7,   77.1, -999.0
22-11-2022, 00:38:29,    213,    0.2,    3.5,   0.00,   0.00,  985.6,   77.1, -999.0
22-11-2022, 00:38:39,    196,    1.3,    3.6,   0.00,   0.00,  985.8,   77.3, -999.0
22-11-2022, 00:38:49,    218,    0.2,    3.5,   0.00,   0.00,  985.7,   76.9, -999.0
22-11-2022, 00:38:59,    228,    0.5,    3.5,   0.00,   0.00,  985.8,   77.2, -999.0
22-11-2022, 00:39:09,    228,    0.6,    3.6,   0.00,   0.00,  985.8,   77.2, -999.0
22-11-2022, 00:39:19,    305,    0.9,    3.6,   0.00,   0.00,  985.7,   77.3, -999.0
22-11-2022, 00:39:29,    238,    1.6,    3.6,   0.00,   0.00,  985.8,   77.3, -999.0
22-11-2022, 00:39:39,    222,    1.9,    3.6,   0.00,   0.00,  985.8,   77.3, -999.0
22-11-2022, 00:39:49,    228,    2.9,    3.6,   0.00,   0.00,  985.8,   77.4, -999.0
22-11-2022, 00:39:59,    229,    0.9,    3.5,   0.00,   0.00,  985.8,   77.2, -999.0
22-11-2022, 00:40:09,    230,    0.4,    3.6,   0.00,   0.00,  985.8,   77.0, -999.0
22-11-2022, 00:40:19,    232,    1.4,    3.5,   0.00,   0.00,  985.8,   77.2, -999.0
22-11-2022, 00:40:29,    230,    0.2,    3.6,   0.00,   0.00,  985.8,   77.1, -999.0
22-11-2022, 00:40:39,    230,    0.5,    3.6,   0.00,   0.00,  985.8,   77.2, -999.0
22-11-2022, 00:40:49,    231,    0.1,    3.5,   0.00,   0.00,  985.7,   77.1, -999.0
22-11-2022, 00:40:59,    231,    0.2,    3.6,   0.00,   0.00,  985.7,   77.3, -999.0
22-11-2022, 00:41:09,    231,    0.4,    3.6,   0.00,   0.00,  985.8,   77.3, -999.0
22-11-2022, 00:41:19,    215,    1.3,    3.6,   0.00,   0.00,  985.8,   77.4, -999.0
22-11-2022, 00:41:29,    227,    0.8,    3.5,   0.00,   0.00,  985.8,   77.3, -999.0
22-11-2022, 00:41:39,    232,    0.8,    3.6,   0.00,   0.00,  985.8,   77.4, -999.0
22-11-2022, 00:41:49,    234,    0.7,    3.6,   0.00,   0.00,  985.8,   77.3, -999.0
22-11-2022, 00:41:59,    231,    0.3,    3.5,   0.00,   0.00,  985.8,   77.2, -999.0
22-11-2022, 00:42:09,    232,    2.4,    3.5,   0.00,   0.01,  985.8,   77.3, -999.0
22-11-2022, 00:42:19,    235,    3.7,    3.6,   0.00,   0.00,  985.8,   77.0, -999.0
22-11-2022, 00:42:30,    257,    3.2,    3.6,   0.00,   0.00,  985.8,   76.7, -999.0
22-11-2022, 00:42:38,    226,    1.6,    3.6,   0.00,   0.00,  985.8,   76.8, -999.0
22-11-2022, 00:42:49,    256,    1.9,    3.6,   0.00,   0.00,  985.8,   76.9, -999.0
22-11-2022, 00:42:59,    240,    4.0,    3.6,   0.00,   0.00,  985.9,   76.9, -999.0
22-11-2022, 00:43:09,    235,    4.3,    3.6,   0.00,   0.00,  985.8,   76.9, -999.0
22-11-2022, 00:43:18,    257,    4.0,    3.6,   0.00,   0.00,  985.9,   76.9, -999.0
22-11-2022, 00:43:29,    241,    2.6,    3.5,   0.00,   0.00,  985.9,   76.7, -999.0
22-11-2022, 00:43:39,    229,    1.8,    3.6,   0.00,   0.00,  985.8,   76.8, -999.0
22-11-2022, 00:43:48,    245,    1.3,    3.6,   0.00,   0.00,  985.8,   76.9, -999.0
22-11-2022, 00:43:59,    232,    2.5,    3.6,   0.00,   0.00,  985.7,   77.0, -999.0
22-11-2022, 00:44:09,    233,    1.0,    3.6,   0.00,   0.00,  985.8,   76.9, -999.0
22-11-2022, 00:44:18,    230,    0.0,    3.5,   0.00,   0.00,  985.6,   76.5, -999.0
22-11-2022, 00:44:28,    231,    0.5,    3.6,   0.00,   0.00,  985.7,   76.8, -999.0
22-11-2022, 00:44:39,    239,    1.5,    3.6,   0.00,   0.00,  985.8,   76.9, -999.0
22-11-2022, 00:44:48,    252,    0.9,    3.6,   0.00,   0.00,  985.8,   76.9, -999.0
22-11-2022, 00:44:58,    266,    0.2,    3.5,   0.00,   0.00,  985.7,   76.7, -999.0
22-11-2022, 00:45:08,    262,    1.2,    3.7,   0.00,   0.00,  985.8,   76.8, -999.0
22-11-2022, 00:45:18,    234,    0.3,    3.5,   0.00,   0.00,  985.7,   76.8, -999.0
22-11-2022, 00:45:28,    248,    0.6,    3.5,   0.00,   0.00,  985.7,   76.7, -999.0
22-11-2022, 00:45:38,    218,    2.4,    3.6,   0.00,   0.00,  985.8,   76.9, -999.0
22-11-2022, 00:45:48,    256,    2.9,    3.6,   0.00,   0.00,  985.8,   76.9, -999.0
22-11-2022, 00:45:58,    258,    4.5,    3.6,   0.00,   0.00,  985.8,   76.8, -999.0
22-11-2022, 00:46:08,    228,    3.8,    3.6,   0.00,   0.00,  985.8,   76.7, -999.0
22-11-2022, 00:46:18,    230,    3.0,    3.6,   0.00,   0.00,  985.8,   76.7, -999.0
22-11-2022, 00:46:28,    263,    2.9,    3.6,   0.00,   0.00,  985.8,   76.9, -999.0
22-11-2022, 00:46:38,    227,    2.8,    3.6,   0.00,   0.00,  985.8,   76.9, -999.0
22-11-2022, 00:46:48,    190,    0.8,    3.6,   0.00,   0.00,  985.8,   76.9, -999.0